DW8016 Weather Reports


time (UTC)temp
C
wind
direction
speed
KPH
gust
KPH
rain 1hr
cm
rain 24hr
cm
rain mn
cm
humidity
%
barometer
mb
20260903092510 22 162 0.0 0.0 0.00 0.99 0.00 94 1016.3
20260903091439 22 162 0.0 0.0 0.00 0.99 0.00 94 1016.3
20260903090429 22 162 0.0 0.0 0.00 0.99 0.00 93 1016.2
20260903085432 22 162 0.0 0.0 0.00 0.99 0.00 93 1016.3
20260903084453 23 162 0.0 1.6 0.00 0.99 0.00 93 1016.1
20260903083444 23 162 0.0 4.8 0.00 0.99 0.00 93 1015.8
20260903082420 23 162 0.0 0.0 0.00 0.99 0.00 93 1015.9
20260903081354 23 162 0.0 0.0 0.00 0.99 0.00 93 1015.9
20260903075307 23 167 0.0 8.0 0.00 0.99 0.00 93 1015.9
20260903073107 23 117 0.0 8.0 0.00 0.99 0.00 93 1016.1
20260903072036 22 168 0.0 8.0 0.00 0.99 0.00 93 1016.0
20260903071015 22 138 0.0 4.8 0.00 0.99 0.00 93 1016.0
20260903070005 23 111 0.0 4.8 0.00 0.99 0.00 93 1016.0
20260903064946 23 124 0.0 1.6 0.00 0.99 0.00 93 1016.0
20260903063934 23 160 0.0 9.7 0.00 0.99 0.00 93 1016.1
20260903061736 23 145 0.0 0.0 0.00 0.99 0.00 93 1016.2
20260903060744 23 145 0.0 0.0 0.00 0.99 0.00 93 1016.2
20260903055743 23 138 1.6 6.4 0.00 0.99 0.00 93 1016.1
20260903054754 23 107 0.0 4.8 0.00 0.99 0.00 94 1016.4
20260903053725 23 106 0.0 0.0 0.00 0.99 0.00 94 1016.3
20260903052746 22 106 0.0 3.2 0.00 0.99 0.00 94 1016.3
20260903051753 22 106 0.0 0.0 0.00 0.99 0.00 94 1016.3
20260903050735 22 106 0.0 0.0 0.00 0.99 0.00 94 1016.5
20260903045746 22 106 0.0 0.0 0.00 0.99 0.00 94 1016.6
20260903044743 22 106 0.0 0.0 0.00 0.99 0.00 94 1016.7
20260903043731 22 106 0.0 0.0 0.00 0.99 0.00 94 1016.7
20260903042710 22 106 0.0 0.0 0.00 0.99 0.00 94 1016.7
20260903040623 22 106 0.0 0.0 0.00 0.99 0.00 94 1017.0
20260903034433 22 106 0.0 0.0 0.00 0.99 1.02 93 1017.0
20260903032338 22 106 0.0 0.0 0.00 0.99 1.02 93 1017.0
20260903031319 23 106 0.0 0.0 0.00 0.99 1.02 93 1017.1
20260903030308 23 106 0.0 4.8 0.00 0.99 1.02 93 1017.0
20260903025248 23 116 0.0 0.0 0.00 0.99 1.02 94 1016.9
20260903024305 23 200 0.0 0.0 0.00 0.99 1.02 94 1016.9
20260903023321 23 200 0.0 0.0 0.00 0.99 1.02 94 1017.0
20260903022258 23 200 0.0 0.0 0.00 0.99 1.02 93 1016.8
20260903021305 23 200 0.0 0.0 0.00 0.99 1.02 93 1016.7
20260903014011 23 200 0.0 0.0 0.00 0.99 1.02 93 1016.3
20260903013009 23 200 0.0 0.0 0.00 0.99 1.02 93 1016.6
20260903011956 23 200 0.0 0.0 0.00 0.99 1.02 93 1016.7
20260903010934 23 200 0.0 0.0 0.00 0.99 1.02 93 1016.9
20260903005946 23 200 0.0 0.0 0.00 0.99 1.02 93 1016.9
20260903004929 23 200 0.0 0.0 0.00 0.99 1.02 93 1016.9
20260903003905 23 200 0.0 0.0 0.00 0.99 1.02 92 1016.6
20260903002853 23 200 0.0 0.0 0.00 0.99 1.02 92 1016.5
20260903001819 23 200 0.0 0.0 0.00 0.99 1.02 92 1016.7
20260903000826 23 200 0.0 0.0 0.00 0.99 1.02 91 1016.5
20260902235826 23 200 0.0 0.0 0.00 0.99 1.02 91 1016.7
20260902233732 23 200 0.0 0.0 0.00 0.99 1.02 90 1016.7
20260902232710 24 200 0.0 0.0 0.00 0.99 1.02 89 1016.4
20260902224334 25 200 0.0 0.0 0.00 0.99 1.02 85 1016.9
20260902223318 25 200 0.0 0.0 0.00 0.99 1.02 87 1016.9
20260902221117 24 200 0.0 1.6 0.00 0.99 1.02 89 1016.8
20260902220112 24 200 0.0 0.0 0.00 0.99 1.02 92 1017.0
20260902215110 24 200 0.0 0.0 0.00 0.99 1.02 91 1017.1
20260902212929 24 200 0.0 0.0 0.00 0.99 1.02 92 1017.5
20260902210737 23 200 0.0 0.0 0.00 0.99 1.02 92 1017.3
20260902204520 23 200 0.0 1.6 0.00 0.99 1.02 93 1017.4
20260902203507 23 200 0.0 0.0 0.00 0.99 1.02 92 1017.1
20260902201257 23 200 0.0 0.0 0.00 0.99 1.02 92 1017.1
20260902200310 23 200 0.0 0.0 0.00 0.99 1.02 92 1017.5
20260902195322 23 200 0.0 0.0 0.00 0.99 1.02 92 1017.9
20260902194254 23 200 0.0 0.0 0.00 0.99 1.02 91 1017.5
20260902193237 23 198 0.0 3.2 0.00 0.99 1.02 91 1017.2
20260902190018 23 105 0.0 0.0 0.00 0.99 1.02 89 1016.8
20260902185010 23 105 0.0 0.0 0.00 0.99 1.02 91 1017.7
20260902184033 23 105 0.0 0.0 0.10 0.99 1.02 90 1017.5
20260902181816 25 97 0.0 6.4 8.76 0.46 0.61 81 1019.3
20260902180829 27 92 3.2 12.9 0.69 0.05 0.08 76 1019.5
20260902174641 32 60 1.6 8.0 0.00 0.00 0.00 64 1018.4
20260902173638 33 0 1.6 8.0 0.00 0.00 0.00 59 1018.2
20260902172628 33 82 0.0 6.4 0.00 0.00 0.00 59 1018.1
20260902171601 32 323 1.6 6.4 0.00 0.00 0.00 61 1018.0
20260902170602 32 355 0.0 0.0 0.00 0.00 0.00 60 1017.9
20260902165530 32 5 1.6 9.7 0.00 0.00 0.00 59 1017.8
20260902164536 33 185 1.6 9.7 0.00 0.00 0.00 60 1017.7
20260902163548 33 103 0.0 9.7 0.00 0.00 0.00 59 1017.7
20260902162523 32 104 0.0 6.4 0.00 0.00 0.00 58 1017.8
20260902161539 33 42 0.0 0.0 0.00 0.00 0.00 59 1017.8
20260902155333 32 74 1.6 8.0 0.00 0.00 0.00 60 1017.6
20260902154332 32 192 0.0 4.8 0.00 0.00 0.00 60 1017.6
20260902153316 32 104 0.0 9.7 0.00 0.00 0.00 61 1017.6
20260902152326 32 115 1.6 9.7 0.00 0.00 0.00 62 1017.6
20260902151304 31 105 1.6 9.7 0.00 0.00 0.00 63 1017.5
20260902150303 31 187 0.0 1.6 0.00 0.00 0.00 64 1017.5
20260902145257 30 107 3.2 8.0 0.00 0.00 0.00 64 1017.6
20260902144312 30 111 1.6 9.7 0.00 0.00 0.00 65 1017.6
20260902143333 30 119 4.8 9.7 0.00 0.00 0.00 66 1017.4
20260902142259 31 114 0.0 8.0 0.00 0.00 0.00 65 1017.6
20260902141323 30 84 1.6 8.0 0.00 0.00 0.00 66 1017.6
20260902140319 30 88 1.6 8.0 0.00 0.00 0.00 67 1017.6
20260902134131 30 123 1.6 8.0 0.00 0.00 0.00 68 1017.4
20260902132003 29 108 0.0 1.6 0.00 0.00 0.00 70 1017.5
20260902125858 28 115 0.0 6.4 0.00 0.00 0.00 72 1017.3
20260902124844 27 284 0.0 0.0 0.00 0.00 0.00 77 1017.4
20260902123851 27 275 0.0 0.0 0.00 0.00 0.00 79 1017.3
20260902121746 25 275 0.0 0.0 0.00 0.00 0.00 84 1017.1
20260902120801 25 275 0.0 0.0 0.00 0.00 0.00 87 1017.1
20260902114645 24 275 0.0 0.0 0.00 0.00 0.00 88 1017.0
20260902113615 24 275 0.0 0.0 0.00 0.00 0.00 88 1016.9
20260902112621 24 275 0.0 0.0 0.00 0.00 0.00 89 1016.9
20260902111554 24 275 0.0 0.0 0.00 0.00 0.00 90 1017.0
20260902110556 24 275 0.0 0.0 0.00 0.00 0.00 89 1017.0
20260902105556 23 275 0.0 0.0 0.00 0.00 0.00 89 1017.1
20260902104523 23 275 0.0 0.0 0.00 0.00 0.00 89 1017.1
20260902102351 24 275 0.0 0.0 0.00 0.00 0.00 89 1017.0
20260902101347 24 275 0.0 0.0 0.00 0.00 0.00 88 1017.0
20260902100333 24 275 0.0 0.0 0.00 0.00 0.00 88 1016.7
20260902095351 24 275 0.0 0.0 0.00 0.00 0.00 89 1016.7
20260902093233 23 275 0.0 0.0 0.00 0.00 0.00 88 1016.7